EN

Hourly Weather Altania

Today, 24 January, Sunday

Time Temperature Precipitation Wind Pressure Humidity
00:00 +23°C° 0 mm 5 mps 729 mmHg 90%
01:00 +23°C° 0 mm 4 mps 728 mmHg 91%
02:00 +22°C° 0 mm 4 mps 728 mmHg 91%
03:00 +22°C° 0 mm 4 mps 728 mmHg 92%
04:00 +22°C° 0 mm 3 mps 728 mmHg 93%
05:00 +23°C° 0 mm 2 mps 728 mmHg 93%
06:00 +24°C° 0 mm 3 mps 728 mmHg 90%
07:00 +25°C° 0 mm 3 mps 729 mmHg 87%
08:00 +25°C° 0 mm 4 mps 729 mmHg 84%
09:00 +26°C° 0.2 mm 4 mps 729 mmHg 82%
10:00 +27°C° 0.2 mm 4 mps 729 mmHg 79%
11:00 +28°C° 0.2 mm 5 mps 729 mmHg 77%
12:00 +28°C° 0.4 mm 5 mps 728 mmHg 76%
13:00 +28°C° 0.4 mm 5 mps 728 mmHg 75%
14:00 +29°C° 0.4 mm 5 mps 727 mmHg 75%
15:00 +28°C° 0.7 mm 5 mps 727 mmHg 78%
16:00 +27°C° 0.7 mm 4 mps 727 mmHg 81%
17:00 +27°C° 0.7 mm 4 mps 727 mmHg 85%
18:00 +26°C° 0.2 mm 4 mps 727 mmHg 86%
19:00 +25°C° 0.2 mm 4 mps 727 mmHg 87%
20:00 +25°C° 0.2 mm 4 mps 727 mmHg 89%
21:00 +23°C° 0 mm 4 mps 727 mmHg 89%
22:00 +23°C° 0 mm 4 mps 727 mmHg 89%
23:00 +24°C° 0 mm 3 mps 727 mmHg 89%

Tomorrow, 25 January, Monday

Time Temperature Precipitation Wind Pressure Humidity
00:00 +24°C° 0 mm 3 mps 727 mmHg 89%
01:00 +23°C° 0 mm 4 mps 727 mmHg 89%
02:00 +23°C° 0 mm 4 mps 726 mmHg 89%
03:00 +22°C° 0 mm 4 mps 727 mmHg 89%
04:00 +22°C° 0 mm 3 mps 727 mmHg 89%
05:00 +22°C° 0 mm 3 mps 727 mmHg 89%
06:00 +23°C° 0 mm 4 mps 727 mmHg 87%
07:00 +23°C° 0 mm 4 mps 727 mmHg 85%
08:00 +25°C° 0 mm 5 mps 728 mmHg 83%
09:00 +26°C° 0.5 mm 5 mps 728 mmHg 82%
10:00 +27°C° 0.5 mm 5 mps 727 mmHg 80%
11:00 +28°C° 0.5 mm 5 mps 727 mmHg 79%
12:00 +29°C° 1.4 mm 5 mps 726 mmHg 77%
13:00 +29°C° 1.4 mm 5 mps 726 mmHg 76%
14:00 +30°C° 1.4 mm 5 mps 725 mmHg 74%
15:00 +29°C° 2.8 mm 4 mps 725 mmHg 78%
16:00 +28°C° 2.8 mm 3 mps 725 mmHg 81%
17:00 +27°C° 2.8 mm 3 mps 725 mmHg 85%
18:00 +27°C° 0.5 mm 3 mps 725 mmHg 85%
19:00 +26°C° 0.5 mm 2 mps 726 mmHg 85%
20:00 +26°C° 0.5 mm 2 mps 726 mmHg 86%
21:00 +25°C° 0 mm 2 mps 726 mmHg 87%
22:00 +25°C° 0 mm 3 mps 726 mmHg 89%
23:00 +25°C° 0 mm 3 mps 726 mmHg 90%

Day after tomorrow, 26 January, Tuesday

Time Temperature Precipitation Wind Pressure Humidity
00:00 +25°C° 0 mm 3 mps 726 mmHg 90%
01:00 +24°C° 0 mm 2 mps 726 mmHg 91%
02:00 +24°C° 0 mm 2 mps 725 mmHg 91%
03:00 +24°C° 0.1 mm 3 mps 725 mmHg 91%
04:00 +24°C° 0.1 mm 3 mps 726 mmHg 91%
05:00 +24°C° 0.1 mm 3 mps 726 mmHg 92%
06:00 +24°C° 0.1 mm 3 mps 726 mmHg 91%
07:00 +25°C° 0.1 mm 4 mps 727 mmHg 90%
08:00 +25°C° 0.1 mm 4 mps 727 mmHg 90%
09:00 +26°C° 0.1 mm 4 mps 727 mmHg 88%
10:00 +26°C° 0.1 mm 3 mps 727 mmHg 87%
11:00 +27°C° 0.1 mm 3 mps 727 mmHg 85%
12:00 +28°C° 1.5 mm 3 mps 727 mmHg 81%
13:00 +29°C° 1.5 mm 4 mps 726 mmHg 77%
14:00 +30°C° 1.5 mm 4 mps 726 mmHg 72%
15:00 +30°C° 1.2 mm 3 mps 726 mmHg 75%
16:00 +29°C° 1.2 mm 3 mps 725 mmHg 78%
17:00 +29°C° 1.2 mm 2 mps 725 mmHg 81%
18:00 +28°C° 0.2 mm 3 mps 725 mmHg 83%
19:00 +27°C° 0.2 mm 3 mps 726 mmHg 84%
20:00 +26°C° 0.2 mm 3 mps 726 mmHg 86%
21:00 +26°C° 0 mm 3 mps 726 mmHg 87%
22:00 +26°C° 0 mm 3 mps 726 mmHg 88%
23:00 +25°C° 0 mm 3 mps 726 mmHg 89%

27 January, Wednesday

Time Temperature Precipitation Wind Pressure Humidity
00:00 +25°C° 0 mm 3 mps 725 mmHg 89%
01:00 +25°C° 0 mm 3 mps 725 mmHg 90%
02:00 +24°C° 0 mm 3 mps 725 mmHg 91%
03:00 +23°C° 0 mm 4 mps 725 mmHg 91%
04:00 +23°C° 0 mm 4 mps 725 mmHg 90%
05:00 +23°C° 0 mm 4 mps 726 mmHg 90%
06:00 +25°C° 0 mm 4 mps 726 mmHg 87%
07:00 +26°C° 0 mm 5 mps 727 mmHg 85%
08:00 +27°C° 0 mm 5 mps 727 mmHg 82%
09:00 +28°C° 1.2 mm 5 mps 727 mmHg 82%
10:00 +28°C° 1.2 mm 5 mps 727 mmHg 82%
11:00 +28°C° 1.2 mm 5 mps 727 mmHg 82%
12:00 +29°C° 1.4 mm 5 mps 727 mmHg 80%
13:00 +29°C° 1.4 mm 5 mps 726 mmHg 78%
14:00 +30°C° 1.4 mm 4 mps 726 mmHg 76%
15:00 +30°C° 0.7 mm 3 mps 726 mmHg 78%
16:00 +29°C° 0.7 mm 3 mps 725 mmHg 80%
17:00 +29°C° 0.7 mm 2 mps 725 mmHg 82%
18:00 +28°C° 0 mm 2 mps 725 mmHg 83%
19:00 +28°C° 0 mm 2 mps 725 mmHg 83%
20:00 +27°C° 0 mm 2 mps 725 mmHg 84%
21:00 +26°C° 0 mm 3 mps 725 mmHg 86%
22:00 +26°C° 0 mm 3 mps 725 mmHg 87%
23:00 +25°C° 0 mm 3 mps 725 mmHg 88%

28 January, Thursday

Time Temperature Precipitation Wind Pressure Humidity
00:00 +25°C° 0.2 mm 3 mps 725 mmHg 90%
01:00 +25°C° 0.2 mm 3 mps 725 mmHg 91%
02:00 +24°C° 0.2 mm 3 mps 725 mmHg 92%
03:00 +24°C° 1.4 mm 3 mps 725 mmHg 93%
04:00 +24°C° 1.4 mm 3 mps 725 mmHg 94%
05:00 +24°C° 1.4 mm 2 mps 725 mmHg 94%
06:00 +25°C° 1.9 mm 3 mps 726 mmHg 91%
07:00 +26°C° 1.9 mm 3 mps 726 mmHg 88%
08:00 +27°C° 1.9 mm 3 mps 727 mmHg 85%
09:00 +28°C° 0.9 mm 3 mps 726 mmHg 82%
10:00 +28°C° 0.9 mm 3 mps 726 mmHg 80%
11:00 +29°C° 0.9 mm 4 mps 726 mmHg 78%
12:00 +29°C° 0.2 mm 3 mps 725 mmHg 77%
13:00 +29°C° 0.2 mm 3 mps 725 mmHg 77%
14:00 +29°C° 0.2 mm 3 mps 724 mmHg 77%

29 January, Friday

Time Temperature Precipitation Wind Pressure Humidity
Show more